John C. Munro Hamilton International Airport
CYHM : now visible

Airfield :











YOU CAN JOIN US ON...

 
LOGIN :

Register | Disclaimer

   EN    FR    IT 

 









Legend :    VFR   Marginal VFR   IFR   Intensive IFR   Very Intensive IFR
Visi :
Ceiling :
>= 8 km
>= 3000ft
5 to 8 km
1000 to 3000 ft
1500m to 5 km
500 to 1000 ft
800 to 1500m
200 to 500 ft
< 800m
< 200 ft
Symbols :   Thunderstorms  Fog  Heavy snow  Heavy precipitations  Wind > 20 kt






- Airport Elevation : 780 ft
- IATA code : YHM


CYHM - John C. Munro Hamilton International

CURRENT METAR :
  • 231400Z 20012KT 15SM BKN150 BKN220 03/M04 A3004 RMK AC6CI1 SLP183

EXPIRED METARs :
  • 231300Z 21008KT 15SM SCT160 BKN220 00/M04 A3005 RMK AC3CI4 SLP187
  • 231200Z 20008KT 15SM BKN160 M00/M04 A3005 RMK AC7 SLP187

TAF TAF CYHM
Valid from the 23 at 12:00 until the 24 at 12:00 UTC


231138Z 2312/2412 22010KT P6SM BKN210
FM231500 23010G20KT P6SM SCT030 BKN180
BECMG 2317/2319 22012G22KT
FM232100 22012G22KT P6SM SCT030
BECMG 2402/2404 23012KT
FM241100 23012KT P6SM SCT015 RMK NXT FCST BY 231800Z



MET'MAP, your aeronautical weather chart ! - Copyright ORBIFLY December 2007 - Disclaimer

ORBIFLY MET'MAP TEAM :

Programming & Development : Alexandra Zaïnal
Concept & original design : Baudouin d'Aumeries
Assistance for programming : Marc-Olivier Méhu
Technical & hardware support : Manuel Goepfert

Contact : metmap@orbifly.com




SOURCES & CREDITS :

   NOAA       Earth
Advisory